Change the Weather History Date:

Wednesday, July 24, 2013

  Actual Average Record
Temperature  
Mean Temperature 91 °F -  
Max Temperature 103 °F 95 °F - ()
Min Temperature 79 °F 81 °F - ()
Cooling Degree Days 26    
Growing Degree Days 41 (Base 50)    
Moisture  
Dew Point 61 °F    
Average Humidity 36    
Maximum Humidity 74    
Minimum Humidity 19    
Precipitation  
Precipitation 0.00 in - - ()
Sea Level Pressure  
Sea Level Pressure 29.68 in    
Wind  
Wind Speed 9 mph ()    
Max Wind Speed 18 mph    
Max Gust Speed -    
Visibility 6.0 miles    
Events      
T = Trace of Precipitation, MM = Missing Value Source: Averaged Metar Reports

Daily Weather History Graph

Daily Weather History Graph

Search for Another Location

Airport or City:

Trip Planner

Search our weather history database for the weather conditions in past years. The results will help you decide how hot, cold, wet, or windy it might be!

Date:

Astronomy

Jul. 24, 2013 Rise Set
Actual Time 5:04 AM EET 6:37 PM EET
Civil Twilight 4:39 AM EET 7:03 PM EET
Nautical Twilight 4:08 AM EET 7:33 PM EET
Astronomical Twilight 3:36 AM EET 8:05 PM EET
Moon 7:49 PM EET (7/24) 6:45 AM EET (7/24)
Length of Visible Light 14h 24m
Length of Day
13h 33m
Waning Gibbous, 96% of the Moon is Illuminated
Jul 24
Waning Gibbous
Jul 29
Last Quarter
Aug 6
New
Aug 14
First Quarter
Aug 21
Full

Hourly Weather History & Observations

Time (EET) Temp. Heat Index Dew Point Humidity Pressure Visibility Wind Dir Wind Speed Gust Speed Precip Events Conditions
12:00 AM 86.0 °F - 51.8 °F 31% 29.65 in - WNW 8.1 mph - N/A   Clear
1:00 AM 84.2 °F - 51.8 °F 33% 29.65 in - WNW 8.1 mph - N/A   Clear
2:00 AM 84 °F - 56 °F 27% 29.66 in 6 mi WNW 10.4 mph - -  
2:00 AM 84.2 °F 83.0 °F 55.4 °F 37% 29.65 in - WNW 10.4 mph - N/A   Clear
3:00 AM 82.4 °F 83.4 °F 62.6 °F 51% 29.68 in - NNW 4.6 mph - N/A   Clear
4:00 AM 80.6 °F 80.8 °F 57.2 °F 45% 29.68 in - WNW 4.6 mph - N/A   Clear
5:00 AM 78.8 °F - 69.8 °F 74% 29.68 in - NW 4.6 mph - N/A   Clear
6:00 AM 82.4 °F 86.3 °F 69.8 °F 66% 29.71 in - NNW 4.6 mph - N/A   Clear
7:00 AM 86.0 °F 89.4 °F 68.0 °F 55% 29.71 in - NNW 9.2 mph - N/A   Clear
8:00 AM 89 °F - 67 °F 38% 29.75 in 6 mi North 17.3 mph - -  
8:00 AM 87.8 °F 90.4 °F 66.2 °F 49% 29.74 in - North 17.3 mph - N/A   Clear
9:00 AM 89.6 °F 93.4 °F 68.0 °F 49% 29.74 in - North 18.4 mph - N/A   Clear
10:00 AM 93.2 °F 97.7 °F 68.0 °F 44% 29.74 in - North 17.3 mph - N/A   Clear
11:00 AM 95.0 °F 99.5 °F 68.0 °F 41% 29.71 in - North 17.3 mph - N/A   Clear
12:00 PM 98.6 °F 101.0 °F 64.4 °F 32% 29.71 in - North 17.3 mph - N/A   Clear
1:00 PM 100.4 °F 102.4 °F 62.6 °F 29% 29.68 in - NNE 15.0 mph - N/A   Clear
2:00 PM 102 °F - 63 °F 19% 29.68 in 6 mi NNE 11.5 mph - -  
2:00 PM 102.2 °F 104.2 °F 62.6 °F 27% 29.68 in - NNE 11.5 mph - N/A   Clear
3:00 PM 102.2 °F 103.6 °F 60.8 °F 26% 29.65 in - NNE 10.4 mph - N/A   Clear
4:00 PM 100.4 °F 103.6 °F 64.4 °F 31% 29.65 in - NNE 11.5 mph - N/A   Clear
5:00 PM 98.6 °F 99.4 °F 60.8 °F 29% 29.62 in - North 13.8 mph - N/A   Clear
6:00 PM 96.8 °F 97.1 °F 60.8 °F 30% 29.65 in - North 11.5 mph - N/A   Clear
8:00 PM 92 °F - 57 °F 21% 29.68 in 6 mi NNW 9.2 mph - -  
8:00 PM 93.2 °F 91.9 °F 57.2 °F 30% 29.65 in - NNW 9.2 mph - N/A   Clear
9:00 PM 93.2 °F - 48.2 °F 21% 29.68 in - NNW 11.5 mph - N/A   Clear
10:00 PM 89.6 °F - 48.2 °F 24% 29.68 in - NNW 6.9 mph - N/A   Clear
11:00 PM 89.6 °F - 50.0 °F 26% 29.68 in - NW 11.5 mph - N/A   Clear